Location: Jetmore Motorplex
(37.9889°N, 99.8876°W)
Time: 18:30:53
(UTC+00:00)

H-2A R/B - Pass Details

Date: 17 February 2020
Orbit: 530 x 652 km, 98.3° (Epoch: 27 March)

Event Time Altitude Azimuth Distance (km) Brightness Sun altitude
Rises 11:44:39 0° 5° (N) 2,907 6.1 -20.9°
Reaches altitude 10° 11:46:53 10° 359° (N) 2,013 5.2 -20.5°
Maximum altitude 11:51:05 45° 288° (WNW) 873 2.8 -19.7°
Enters shadow 11:51:16 45° 280° (W) 877 2.8 -19.6°
